Weather History for Chadron, NE

Change the Weather History Date:

Sunday, April 6, 2014

  Actual Average Record
Temperature  
Mean Temperature 44 °F 42 °F  
Max Temperature 59 °F 57 °F 84 °F (1959)
Min Temperature 28 °F 27 °F 9 °F (2007)
Degree Days  
Heating Degree Days 21 23  
Month to date heating degree days 161 144  
Since 1 July heating degree days 6533 6301  
Cooling Degree Days 0 0  
Month to date cooling degree days 0 0  
Year to date cooling degree days 0 0  
Moisture  
Dew Point 32 °F    
Average Humidity 66    
Maximum Humidity 92    
Minimum Humidity 39    
Precipitation  
Precipitation T in 0.05 in 0.94 in (1938)
Month to date precipitation 0.08 0.26  
Year to date precipitation 1.42 2.46  
Sea Level Pressure  
Sea Level Pressure 29.91 in    
Wind  
Wind Speed 7 mph (WSW)    
Max Wind Speed 28 mph    
Max Gust Speed 32 mph    
Visibility 10 miles    
Events      
T = Trace of Precipitation, MM = Missing Value Source: NWS Daily Summary

Daily Weather History Graph

Daily Weather History Graph

Search for Another Location

Airport:

Trip Planner

Search our weather history database for the weather conditions in past years. The results will help you decide how hot, cold, wet, or windy it might be!

Date:

Astronomy

Apr. 06, 2014 Rise Set
Actual Time 6:25 AM MDT 7:24 PM MDT
Civil Twilight 5:56 AM MDT 7:53 PM MDT
Nautical Twilight 5:22 AM MDT 8:27 PM MDT
Astronomical Twilight 4:46 AM MDT 9:03 PM MDT
Moon 11:24 AM MDT (4/6) 1:26 AM MDT (4/6)
Length of Visible Light 13h 56m
Length of Day
12h 58m
Waxing Crescent, 44% of the Moon is Illuminated
Apr 6
Waxing Crescent
Apr 7
First Quarter
Apr 15
Full
Apr 22
Last Quarter
Apr 29
New

Hourly Weather History & Observations

Time (MDT) Temp. Windchill Dew Point Humidity Pressure Visibility Wind Dir Wind Speed Gust Speed Precip Events Conditions
12:53 AM 28.9 °F 23.9 °F 26.1 °F 89% 29.92 in 10.0 mi SSW 4.6 mph - N/A   Clear
1:53 AM 30.0 °F - 27.0 °F 88% 29.92 in 10.0 mi Calm Calm - N/A   Clear
2:53 AM 28.0 °F 22.8 °F 26.1 °F 92% 29.91 in 10.0 mi WNW 4.6 mph - N/A   Scattered Clouds
3:53 AM 37.0 °F 34.5 °F 32.0 °F 82% 29.92 in 10.0 mi NNW 3.5 mph - N/A   Overcast
4:53 AM 35.1 °F 30.1 °F 32.0 °F 89% 29.92 in 10.0 mi SSW 5.8 mph - N/A   Scattered Clouds
5:53 AM 34.0 °F 29.8 °F 30.9 °F 89% 29.91 in 10.0 mi East 4.6 mph - N/A   Overcast
6:53 AM 33.1 °F 26.1 °F 30.0 °F 89% 29.93 in 10.0 mi WSW 8.1 mph - N/A   Clear
7:53 AM 37.9 °F 33.5 °F 34.0 °F 86% 29.94 in 10.0 mi WSW 5.8 mph - N/A   Clear
8:53 AM 46.0 °F 41.9 °F 36.0 °F 68% 29.94 in 10.0 mi West 8.1 mph - N/A   Clear
9:53 AM 50.0 °F - 37.0 °F 61% 29.93 in 10.0 mi Variable 3.5 mph - N/A   Clear
10:53 AM 52.0 °F - 35.1 °F 53% 29.92 in 10.0 mi Calm Calm - N/A   Clear
11:53 AM 55.0 °F - 33.1 °F 43% 29.90 in 10.0 mi WNW 6.9 mph - N/A   Partly Cloudy
12:53 PM 55.9 °F - 32.0 °F 40% 29.88 in 10.0 mi NW 9.2 mph - N/A   Overcast
1:53 PM 57.9 °F - 32.0 °F 37% 29.86 in 10.0 mi NNW 9.2 mph - 0.00 in   Partly Cloudy
2:53 PM 52.0 °F - 32.0 °F 47% 29.88 in 10.0 mi SSW 8.1 mph - 0.00 in   Overcast
3:53 PM 46.9 °F - 37.0 °F 68% 29.89 in 10.0 mi SW 17.3 mph 27.6 mph N/A   Overcast
4:53 PM 54.0 °F - 37.9 °F 55% 29.87 in 10.0 mi SW 15.0 mph - 0.00 in   Overcast
5:53 PM 51.1 °F - 35.1 °F 54% 29.88 in 10.0 mi West 8.1 mph - N/A   Clear
6:53 PM 51.1 °F - 36.0 °F 56% 29.89 in 10.0 mi WSW 4.6 mph - N/A   Clear
7:53 PM 41.0 °F 35.2 °F 35.1 °F 79% 29.91 in 10.0 mi SSW 9.2 mph - N/A   Clear
8:53 PM 39.0 °F - 33.1 °F 79% 29.92 in 10.0 mi Calm Calm - N/A   Clear
9:53 PM 33.1 °F 30.0 °F 28.9 °F 85% 29.94 in 10.0 mi South 3.5 mph - N/A   Clear
10:53 PM 32.0 °F 28.7 °F 28.0 °F 85% 29.96 in 10.0 mi SSW 3.5 mph - N/A   Clear
11:53 PM 37.9 °F 33.5 °F 32.0 °F 79% 29.96 in 10.0 mi SW 5.8 mph - N/A   Scattered Clouds